Main page
Satellite images Climate Cyclones Lightning AirportsFAQ Languages Contact Newsletter About
Weather : Europe Africa North America South America Asia Australia-Oceania Others

hat-yai-th, Hat Yai, Hat Yai International Airport

48568

latitude: , longitude: Thailand, elevation: 06-55N m


METAR: VTSS 212000Z 26003KT 9000 FEW018CB 25/24 Q1010 NOSIG